Overview Statistics Trail Chart Weather Telemetry Raw packets
 

This is the latest recevied weather packets stored in our database for station/object SV1JSO-13. If no packets are shown the sender has not sent any weather packets the latest 10 day(s).

<< 77 78 79 80 81 82 83 >>
Time Temp. Humidity Pressure Rain* Wind** Luminosity Snow
1788106200 30.56° C 42% 1008.5 hPa 0 mm - 53 W/m² -
1788105900 30.56° C 42% 1008.5 hPa 0 mm - 65 W/m² -
1788105600 30.56° C 42% 1008.4 hPa 0 mm - 72 W/m² -
1788105301 30.56° C 41% 1008.4 hPa 0 mm - 94 W/m² -
1788105000 31.11° C 41% 1008.4 hPa 0 mm - 107 W/m² -
1788104700 31.11° C 40% 1008.4 hPa 0 mm - 117 W/m² -
1788104412 31.11° C 40% 1008.4 hPa 0 mm - 128 W/m² -
1788104100 31.11° C 39% 1008.4 hPa 0 mm - 140 W/m² -
1788103800 31.67° C 39% 1008.4 hPa 0 mm - 151 W/m² -
1788103500 31.67° C 39% 1008.4 hPa 0 mm - 162 W/m² -
1788103200 31.67° C 39% 1008.4 hPa 0 mm - 173 W/m² -
1788102900 31.67° C 38% 1008.4 hPa 0 mm - 185 W/m² -
1788102600 32.22° C 37% 1008.2 hPa 0 mm - 198 W/m² -
1788102300 32.22° C 37% 1008.3 hPa 0 mm - 211 W/m² -
1788102000 32.78° C 36% 1008.4 hPa 0 mm - 220 W/m² -
1788101700 32.22° C 36% 1008.3 hPa 0 mm - 233 W/m² -
1788101400 32.22° C 37% 1008.3 hPa 0 mm - 249 W/m² -
1788101100 32.78° C 35% 1008.2 hPa 0 mm - 262 W/m² -
1788100800 32.78° C 37% 1008.3 hPa 0 mm - 276 W/m² -
1788100500 32.22° C 36% 1008.4 hPa 0 mm - 282 W/m² -
1788100200 32.78° C 36% 1008.4 hPa 0 mm - 304 W/m² -
1788099900 32.22° C 36% 1008.3 hPa 0 mm - 316 W/m² -
1788099600 32.22° C 37% 1008.4 hPa 0 mm - 331 W/m² -
1788099300 31.67° C 38% 1008.3 hPa 0 mm - 349 W/m² -
1788099000 31.67° C 38% 1008.3 hPa 0 mm - 368 W/m² -

* Rain latest hour (hover to see other rain measurements)
** Current wind speed in m/s (hover to see current wind gust speed)